Location: Unspecified
(42.3650°N, 71.1030°W)
Time: 10:17:31
(UTC+00:00)

Courier 1B - Pass Details

Date: 01 July 2024
Orbit: 962 x 1209 km, 28.3° (Epoch: 13 July)

Event Time Altitude Azimuth Distance (km) Brightness Sun altitude
Rises 02:31:48 0° 234° (SW) 3,635 10.5 -17.4°
Reaches altitude 10° 02:35:00 10° 220° (SW) 2,703 9.6 -17.7°
Enters shadow 02:38:48 21° 185° (S) 2,030 8.7 -18.0°
Maximum altitude 02:39:50 22° 172° (S) 1,998 - -18.1°
Drops below altitude 10° 02:44:50 10° 123° (ESE) 2,793 - -18.6°
Sets 02:48:12 0° 109° (ESE) 3,787 - -18.9°
